Regional Weather Roundup
Issued by NWS

Home | Current Version | Previous Version | Graphics & Text | Print | Product List | Glossary On
Versions: 1 2 3 4 5 6 7 8 9 10 11 12 13 14 15 16 17 18 19 20 21 22 23 24 25 26 27 28 29 30 31 32 33 34 35 36 37 38 39 40 41 42 43 44 45 46 47 48 49 50
000
ASUS43 KBIS 241610
RWRND

NORTH DAKOTA REGIONAL WEATHER ROUNDUP
NATIONAL WEATHER SERVICE BISMARCK ND
1100 AM CDT TUE APR 24 2018

NOTE: "FAIR" INDICATES FEW OR NO CLOUDS BELOW 12,000 FEET WITH NO
SIGNIFICANT WEATHER AND/OR OBSTRUCTIONS TO VISIBILITY.


NDZ001>003-009>011-017-241700-
NORTHWEST NORTH DAKOTA

CITY           SKY/WX    TMP DP  RH WIND       PRES   REMARKS
WILLISTON      SUNNY     50  29  44 S8        30.49S
MINOT          SUNNY     51  25  36 NW10      30.45S
MINOT AFB      SUNNY     51  25  37 NW13      30.44S
$$

NDZ018>021-031>035-040>046-241700-
SOUTHWEST NORTH DAKOTA

CITY           SKY/WX    TMP DP  RH WIND       PRES   REMARKS
BISMARCK       MOSUNNY   49  26  41 NE18G28   30.45S
DICKINSON      SUNNY     48  23  37 NE12      30.46S
GARRISON         N/A     46  24  42 NW6       30.46S
HETTINGER ARPT MOSUNNY   37  29  72 N13       30.49R
$$

NDZ004>008-012>016-024-026-027-054-241700-
NORTHEAST NORTH DAKOTA

CITY           SKY/WX    TMP DP  RH WIND       PRES   REMARKS
GRAND FORKS    FAIR      45  33  63 N21G29    30.39S
GRND FRKS AFB  FAIR      47  31  53 N20       30.40R
DEVILS LAKE    FAIR      44  27  51 N17G24    30.43R
$$

NDZ022-023-025-028>030-036>039-047>053-241700-
SOUTHEAST NORTH DAKOTA

CITY           SKY/WX    TMP DP  RH WIND       PRES   REMARKS
FARGO          FAIR      46  35  65 N17       30.35S
JAMESTOWN      CLOUDY    47  32  56 N24       30.39R
$$




USA.gov is the U.S. government's official web portal to all federal, state and local government web resources and services.